Pellston, MI

8:33 PM EDT on October 20, 2017 (GMT -0400)
Pellston Regional Airport Of Emmet County

Weather History for KPLN - November, 2012

Change the Weather History Date:

Tuesday, November 6, 2012

  Actual Average Record
Temperature  
Mean Temperature 29 °F -  
Max Temperature 39 °F 44 °F 71 °F (2008)
Min Temperature 19 °F 28 °F 6 °F (1966)
Degree Days  
Heating Degree Days 36    
Moisture  
Dew Point 24 °F    
Average Humidity 69    
Maximum Humidity 89    
Minimum Humidity 51    
Precipitation  
Precipitation 0.00 in - - ()
Sea Level Pressure  
Sea Level Pressure 30.06 in    
Wind  
Wind Speed 4 mph (SSE)    
Max Wind Speed 9 mph    
Max Gust Speed -    
Visibility 10 miles    
Events      
Averages and records for this station are not official NWS values.
T = Trace of Precipitation, MM = Missing Value Source: NWS Daily Summary

Daily Weather History Graph

Daily Weather History Graph

Search for Another Location

Airport or City:

Trip Planner

Search our weather history database for the weather conditions in past years. The results will help you decide how hot, cold, wet, or windy it might be!

Date:

Astronomy

Nov. 06, 2012 Rise Set
Actual Time 7:26 AM EST 5:18 PM EST
Civil Twilight 6:55 AM EST 5:49 PM EST
Nautical Twilight 6:19 AM EST 6:25 PM EST
Astronomical Twilight 5:45 AM EST 6:59 PM EST
Moon No Moon Rise 1:15 PM EST (11/6)
Length of Visible Light 10h 54m
Length of Day
9h 52m
Waning Gibbous, 53% of the Moon is Illuminated
Nov 6
Waning Gibbous
Nov 6
Last Quarter
Nov 13
New
Nov 20
First Quarter
Nov 28
Full

Hourly Weather History & Observations

Time (EST) Temp. Windchill Dew Point Humidity Pressure Visibility Wind Dir Wind Speed Gust Speed Precip Events Conditions
12:54 AM 19.9 °F - 17.1 °F 89% 30.18 in 8.0 mi Calm Calm - N/A   Partly Cloudy
1:54 AM 23.0 °F - 19.9 °F 88% 30.17 in 10.0 mi Calm Calm - N/A   Overcast
2:54 AM 21.0 °F - 18.0 °F 88% 30.16 in 10.0 mi Calm Calm - N/A   Clear
3:54 AM 21.9 °F - 18.0 °F 85% 30.13 in 9.0 mi Calm Calm - N/A   Mostly Cloudy
4:54 AM 26.1 °F - 21.9 °F 84% 30.12 in 10.0 mi Calm Calm - N/A   Overcast
5:54 AM 26.1 °F - 23.0 °F 88% 30.10 in 10.0 mi Calm Calm - N/A   Overcast
6:54 AM 28.0 °F 24.2 °F 24.1 °F 85% 30.08 in 10.0 mi South 3.5 mph - N/A   Overcast
7:54 AM 30.0 °F 26.5 °F 24.1 °F 79% 30.08 in 10.0 mi South 3.5 mph - N/A   Overcast
8:54 AM 30.9 °F 24.3 °F 24.1 °F 76% 30.09 in 10.0 mi SSE 6.9 mph - N/A   Overcast
9:54 AM 33.1 °F 27.7 °F 25.0 °F 72% 30.09 in 10.0 mi South 5.8 mph - N/A   Overcast
10:54 AM 35.1 °F 29.3 °F 25.0 °F 67% 30.07 in 10.0 mi SSE 6.9 mph - N/A   Overcast
11:54 AM 36.0 °F 29.0 °F 24.1 °F 62% 30.06 in 10.0 mi SSE 9.2 mph - N/A   Overcast
12:54 PM 37.9 °F 32.1 °F 24.1 °F 57% 30.04 in 10.0 mi SSE 8.1 mph - N/A   Overcast
1:54 PM 39.9 °F 34.5 °F 23.0 °F 51% 30.01 in 10.0 mi SSE 8.1 mph - N/A   Overcast
2:54 PM 39.9 °F 34.5 °F 24.1 °F 53% 30.00 in 10.0 mi SE 8.1 mph - N/A   Overcast
3:54 PM 39.0 °F 34.0 °F 25.0 °F 57% 30.00 in 10.0 mi SE 6.9 mph - N/A   Overcast
4:54 PM 39.0 °F 35.7 °F 25.0 °F 57% 30.00 in 10.0 mi SE 4.6 mph - N/A   Overcast
5:54 PM 39.0 °F 34.0 °F 25.0 °F 57% 30.01 in 10.0 mi SE 6.9 mph - N/A   Overcast
6:54 PM 37.9 °F 33.5 °F 25.0 °F 60% 30.02 in 10.0 mi SE 5.8 mph - N/A   Overcast
7:54 PM 37.9 °F 32.7 °F 25.0 °F 60% 30.03 in 10.0 mi SE 6.9 mph - N/A   Overcast
8:30 PM 37.4 °F 32.1 °F 24.8 °F 60% 30.00 in 10.0 mi SE 6.9 mph - N/A   Overcast
8:54 PM 37.9 °F 32.1 °F 26.1 °F 62% 30.03 in 10.0 mi SE 8.1 mph - N/A   Overcast
9:29 PM 37.4 °F 32.8 °F 26.6 °F 65% 30.01 in 10.0 mi SE 5.8 mph - N/A   Overcast
9:54 PM 37.9 °F 32.7 °F 26.1 °F 62% 30.04 in 10.0 mi SSE 6.9 mph - N/A   Overcast
10:54 PM 37.0 °F 30.4 °F 26.1 °F 65% 30.04 in 10.0 mi SSE 9.2 mph - N/A   Overcast
11:54 PM 37.0 °F 30.4 °F 26.1 °F 65% 30.04 in 10.0 mi SSE 9.2 mph - N/A   Overcast